Location: Madrid
(40.4000°N, 3.6830°W)
Time: 11:02:42
(UTC+02:00)

ISS - Pass Details

Date: 23 May 2020
Orbit: 417 x 419 km, 51.6° (Epoch: 31 May)

Event Time Altitude Azimuth Distance (km) Brightness Sun altitude
Rises 23:53:23 0° 308° (NW) 2,367 1.4 -20.9°
Reaches altitude 10° 23:56:24 10° 337° (NNW) 1,503 0.2 -21.2°
Maximum altitude 23:58:05 13° 8° (N) 1,325 -0.6 -21.4°
Drops below altitude 10° 23:59:46 10° 38° (NE) 1,503 -0.7 -21.5°
Enters shadow 00:01:02 - 54° (NE) 1,811 -0.5 -21.7°
